Change the Weather History Date:

Friday, June 21, 2013

  Actual Average Record
Temperature  
Mean Temperature 74 °F 71 °F  
Max Temperature 87 °F 83 °F 100 °F (1988)
Min Temperature 61 °F 60 °F 38 °F (1963)
Degree Days  
Heating Degree Days 0 1  
Month to date heating degree days 31 34  
Since 1 June heating degree days 31 34  
Since 1 July heating degree days 6165 6144  
Cooling Degree Days 9 7  
Month to date cooling degree days 72 101  
Year to date cooling degree days 166 154  
Since 1 June cooling degree days 72 101  
Growing Degree Days 24 (Base 50)    
Moisture  
Dew Point 56 °F    
Average Humidity 57    
Maximum Humidity 84    
Minimum Humidity 29    
Precipitation  
Precipitation 0.00 in 0.11 in 2.23 in (2006)
Month to date precipitation 4.37 2.57  
Year to date precipitation 18.87 15.94  
Snow  
Snow 0.00 in 0.00 in - ()
Month to date snowfall 0.0 0.0  
Since 1 June snowfall 0.0 0.0  
Since 1 July snowfall 22.4 37.6  
Snow Depth 0.00 in    
Sea Level Pressure  
Sea Level Pressure 30.16 in    
Wind  
Wind Speed 5 mph (South)    
Max Wind Speed 15 mph    
Max Gust Speed 20 mph    
Visibility 10 miles    
Events      
T = Trace of Precipitation, MM = Missing Value Source: NWS Daily Summary

Daily Weather History Graph

Daily Weather History Graph

Search for Another Location

Airport or City:

Trip Planner

Search our weather history database for the weather conditions in past years. The results will help you decide how hot, cold, wet, or windy it might be!

Date:

Astronomy

Jun. 21, 2013 Rise Set
Actual Time 6:01 AM EDT 9:12 PM EDT
Civil Twilight 5:27 AM EDT 9:47 PM EDT
Nautical Twilight 4:43 AM EDT 10:30 PM EDT
Astronomical Twilight 3:50 AM EDT 11:23 PM EDT
Moon 7:21 PM EDT (6/21) 4:17 AM EDT (6/21)
Length of Visible Light 16h 19m
Length of Day
15h 11m
Waxing Gibbous, 95% of the Moon is Illuminated
Jun 21
Waxing Gibbous
Jun 23
Full
Jun 30
Last Quarter
Jul 8
New
Jul 15
First Quarter

Hourly Weather History & Observations

Time (EDT) Temp. Heat Index Dew Point Humidity Pressure Visibility Wind Dir Wind Speed Gust Speed Precip Events Conditions
12:52 AM 64.0 °F - 55.0 °F 73% 30.19 in 10.0 mi Calm Calm - N/A   Mostly Cloudy
1:52 AM 64.0 °F - 55.9 °F 75% 30.19 in 10.0 mi ESE 3.5 mph - N/A   Mostly Cloudy
2:52 AM 64.0 °F - 55.0 °F 73% 30.18 in 10.0 mi ESE 3.5 mph - N/A   Partly Cloudy
3:52 AM 63.0 °F - 55.0 °F 75% 30.18 in 10.0 mi Calm Calm - N/A   Partly Cloudy
4:52 AM 64.0 °F - 55.9 °F 75% 30.17 in 10.0 mi Calm Calm - N/A   Mostly Cloudy
5:52 AM 62.1 °F - 57.0 °F 84% 30.18 in 10.0 mi Calm Calm - N/A   Overcast
6:52 AM 63.0 °F - 57.0 °F 81% 30.18 in 10.0 mi Calm Calm - N/A   Mostly Cloudy
7:52 AM 66.9 °F - 57.9 °F 73% 30.18 in 10.0 mi Calm Calm - N/A   Clear
8:52 AM 72.0 °F - 57.9 °F 61% 30.21 in 10.0 mi SW 5.8 mph - N/A   Clear
9:52 AM 75.9 °F - 59.0 °F 56% 30.19 in 10.0 mi SSW 4.6 mph - N/A   Scattered Clouds
10:52 AM 80.1 °F 80.9 °F 60.1 °F 50% 30.19 in 10.0 mi SW 6.9 mph - N/A   Clear
11:52 AM 84.0 °F 83.5 °F 57.9 °F 41% 30.20 in 10.0 mi SW 10.4 mph - N/A   Clear
12:52 PM 84.9 °F 84.2 °F 57.9 °F 40% 30.19 in 10.0 mi SW 10.4 mph - N/A   Clear
1:52 PM 86.0 °F 84.9 °F 57.0 °F 37% 30.17 in 10.0 mi SSW 10.4 mph 18.4 mph N/A   Scattered Clouds
2:52 PM 87.1 °F - 51.1 °F 29% 30.16 in 10.0 mi South 11.5 mph 18.4 mph N/A   Clear
3:52 PM 86.0 °F - 51.1 °F 30% 30.15 in 10.0 mi SW 9.2 mph - N/A   Clear
4:52 PM 84.9 °F 83.7 °F 55.9 °F 37% 30.13 in 10.0 mi SSW 6.9 mph - N/A   Partly Cloudy
5:52 PM 84.0 °F 84.0 °F 60.1 °F 44% 30.12 in 10.0 mi South 5.8 mph - N/A   Clear
6:52 PM 82.9 °F 83.2 °F 60.1 °F 46% 30.10 in 10.0 mi South 4.6 mph - N/A   Clear
7:52 PM 80.1 °F 80.4 °F 57.0 °F 45% 30.09 in 10.0 mi South 5.8 mph - N/A   Clear
8:52 PM 78.1 °F - 54.0 °F 43% 30.07 in 10.0 mi South 3.5 mph - N/A   Clear
9:52 PM 75.9 °F - 53.1 °F 45% 30.07 in 10.0 mi SSE 4.6 mph - N/A   Clear
10:52 PM 72.0 °F - 54.0 °F 53% 30.08 in 10.0 mi Calm Calm - N/A   Clear
11:52 PM 69.1 °F - 57.0 °F 65% 30.11 in 10.0 mi Calm Calm - N/A   Clear